[[{"header":{"parameterUnit":"m.s-1","parameterCategory":1,"la1":30.2991,"la2":30.254,"lo1":-89.0895,"lo2":-89.0444,"dy":0.0017,"dx":0.0017,"nx":28,"ny":28,"refTime":"2023-09-01T03:00:00:Z","depth":0,"parameterNumber":2,"parameterNumberName":"U-component_of_WINDS"},"data":[0,0,0,0,0,0,0,0,0,0,0,0,0,0,0,0,0,0,0,0,0,0,0,0,0,0,0,0,0,0,0,0,0,0,0,0,0,0,0,0,0,0,0,0,0,0,0,0,0,0,0,0,0,0,0,0,0,0,-1.0207,-1.0207,0,-1.0192,-1.0192,-1.0192,-1.0198,-1.0198,-1.0198,-1.0199,-1.0181,-1.018,-1.0179,0,0,0,0,0,0,0,0,0,0,0,0,0,-1.0239,-1.0238,-1.0207,-1.0207,-1.0207,-1.0192,-1.0192,-1.0192,-1.0198,-1.0198,-1.0198,-1.0199,-1.0181,-1.018,-1.0179,0,0,0,0,0,0,0,0,0,0,0,0,0,-1.0225,-1.0238,-1.0207,-1.0208,-1.0208,-1.0192,-1.0192,-1.0192,-1.0197,-1.0198,-1.0199,-1.0199,-1.0182,-1.018,-1.0179,-1.0161,0,0,-1.0175,-1.0175,0,0,0,0,0,0,0,0,-1.0225,-1.0223,-1.0208,-1.0208,-1.0208,-1.0197,-1.0196,-1.0181,-1.0197,-1.0201,-1.0199,-1.0199,-1.0186,-1.0184,-1.018,-1.016,-1.0159,-1.0175,-1.0175,-1.0174,-1.0174,0,0,0,0,0,0,0,-1.0226,-1.0224,-1.0201,-1.0208,-1.0208,-1.0208,-1.0207,-1.0194,-1.0191,-1.0201,-1.0202,-1.02,-1.0186,-1.0181,-1.018,-1.0159,-1.0175,-1.0174,-1.0174,-1.0173,-1.0121,-1.0121,0,0,0,0,0,0,-1.0228,-1.0225,-1.0202,-1.0201,-1.0218,-1.0207,-1.0206,-1.02,-1.0191,-1.019,-1.0199,-1.02,-1.0183,-1.0181,-1.0179,-1.0157,-1.0174,-1.0173,-1.0172,-1.0122,-1.0121,-1.0121,0,0,0,0,0,0,-1.0228,-1.0226,-1.0202,-1.0213,-1.021,-1.0206,-1.02,-1.02,-1.0195,-1.019,-1.0189,-1.0195,-1.0183,-1.0181,-1.0165,-1.0156,-1.0172,-1.0171,-1.0123,-1.0122,-1.0121,-1.0111,0,0,0,0,0,0,-1.0229,-1.0226,-1.022,-1.0213,-1.0209,-1.019,-1.0199,-1.0199,-1.0193,-1.0194,-1.0186,-1.0185,-1.0184,-1.0167,-1.0164,-1.0155,-1.017,-1.0124,-1.0122,-1.0121,-1.0113,-1.011,-1.0108,0,0,0,0,0,-1.023,-1.0218,-1.0219,-1.0217,-1.0202,-1.0189,-1.0187,-1.0187,-1.0193,-1.0186,-1.0182,-1.0185,-1.0157,-1.0165,-1.0162,-1.0152,-1.0124,-1.0123,-1.0121,-1.0113,-1.0111,-1.0108,0,0,0,0,0,0,-1.0223,-1.0217,-1.0219,-1.0203,-1.0197,-1.019,-1.0182,-1.0184,-1.0175,-1.0176,-1.0175,-1.0173,-1.0157,-1.0153,-1.0162,-1.0133,-1.0142,-1.0139,-1.0137,-1.0134,-1.0132,-1.0133,-1.0169,0,0,0,0,0,-1.022,-1.0211,-1.0205,-1.0192,-1.0189,-1.0186,-1.018,-1.018,-1.0173,-1.017,-1.0165,-1.0158,-1.0147,-1.014,-1.013,-1.0112,-1.0109,-1.0103,-1.0101,-1.0099,-1.0097,-1.0086,-1.0083,-1.0116,-1.0116,-1.0116,0,0,-1.0213,-1.0208,-1.0203,-1.0191,-1.0186,-1.0175,-1.0183,-1.0172,-1.0165,-1.0168,-1.0153,-1.0149,-1.014,-1.0123,-1.0115,-1.0119,-1.0087,-1.0097,-1.0096,-1.0095,-1.0084,-1.0081,-1.0078,-1.0115,-1.0115,-1.0115,0,0,-1.0195,-1.0191,-1.0179,-1.0173,-1.0166,-1.0163,-1.016,-1.0153,-1.0151,-1.0136,-1.0138,-1.0128,-1.011,-1.0103,-1.0098,-1.0075,-1.0077,-1.0072,-1.0061,-1.005,-1.0047,-1.0045,-1.0036,-1.0033,-1.007,-1.007,-1.007,0,-1.0187,-1.0173,-1.0173,-1.0161,-1.0155,-1.0158,-1.0146,-1.014,-1.0129,-1.0125,-1.0129,-1.0106,-1.01,-1.0081,-1.0075,-1.0071,-1.0066,-1.0073,-1.0048,-1.0045,-1.0043,-1.0035,-1.0032,-1.0069,-1.0069,-1.0069,-1.0069,0,-1.0163,-1.0153,-1.0144,-1.0134,-1.0127,-1.0115,-1.0112,-1.0104,-1.0104,-1.0101,-1.0085,-1.0078,-1.0066,-1.0061,-1.0062,-1.0041,-1.0044,-1.0048,-1.0057,-1.0039,-1.0032,-1.0028,-1.0068,-1.0068,-1.0069,-1.0069,0,0,-1.0142,-1.013,-1.0127,-1.0122,-1.0113,-1.0104,-1.0092,-1.008,-1.0074,-1.0065,-1.0054,-1.0038,-1.0042,-1.0035,-1.0034,-1.0024,-1.0006,-1.0029,-1.0029,-1.0025,-0.9982,-0.9979,-0.9976,-1.0007,-1.0006,-1.0006,-0.9983,0,-1.0123,-1.0102,-1.0101,-1.0081,-1.0071,-1.0073,-1.0061,-1.0054,-1.005,-1.004,-1.0035,-1.0024,-1.0029,-1.0025,-1.0015,-1.001,-0.9997,-1.0012,-0.9996,-0.9995,-0.9998,-0.9972,-0.9969,-0.9948,-0.998,-0.9979,-0.9979,0,-1.0099,-1.009,-1.007,-1.0061,-1.0056,-1.0047,-1.0035,-1.0026,-1.0017,-1.0014,-1.0006,-1.0006,-0.9992,-1.0,-0.998,-0.999,-0.9982,-0.9979,-0.9978,-0.9977,-0.9986,-0.997,-0.9941,-0.9938,-0.9974,-0.9975,-0.9975,0,-1.0085,-1.0068,-1.0053,-1.0049,-1.0038,-1.0031,-1.0026,-1.0017,-1.001,-1.0,-0.9995,-0.9983,-0.9976,-0.9966,-0.9962,-0.9969,-0.9941,-0.995,-0.9938,-0.9938,-0.9933,-0.9934,-0.9903,-0.9928,-0.9928,-0.9928,-0.9929,0,-1.0065,-1.0052,-1.0047,-1.0038,-1.0023,-1.0021,-1.0006,-1.0001,-0.9993,-0.9982,-0.9982,-0.9972,-0.9967,-0.9956,-0.9952,-0.9935,-0.9932,-0.9929,-0.9928,-0.9929,-0.993,-0.9925,-0.9927,-0.9928,-0.9928,-0.9928,-0.9928,0,-1.0048,-1.0044,-1.0028,-1.0018,-1.0015,-1.0005,-0.9996,-0.9987,-0.9983,-0.9969,-0.9965,-0.9958,-0.9945,-0.9939,-0.9922,-0.992,-0.99,-0.9901,-0.9904,-0.9904,-0.9893,-0.9894,-0.9858,-0.9853,-0.9882,-0.9881,-0.9881,0,-1.0035,-1.0025,-1.0015,-1.0008,-1.0003,-0.9991,-0.9984,-0.998,-0.9972,-0.996,-0.9952,-0.9938,-0.9927,-0.9904,-0.9897,-0.9884,-0.9884,-0.9872,-0.9882,-0.9883,-0.9883,-0.9884,-0.9883,-0.9871,-0.987,-0.987,-0.987,0,-1.0013,-1.0011,-1.0001,-0.999,-0.9981,-0.9972,-0.9962,-0.9956,-0.9951,-0.9942,-0.9928,-0.9919,-0.9902,-0.9888,-0.9874,-0.9867,-0.9867,-0.9867,-0.9863,-0.9865,-0.9867,-0.9865,-0.9899,-0.9868,-0.9868,-0.9868,-0.9868,-0.9869,-0.9998,-0.9989,-0.998,-0.9968,-0.9961,-0.9952,-0.9942,-0.9936,-0.9925,-0.9911,-0.9909,-0.9894,-0.9883,-0.9864,-0.9856,-0.9844,-0.9847,-0.9842,-0.9841,-0.984,-0.9839,-0.9868,-0.9841,-0.9841,-0.9841,-0.9841,-0.9841,0,-0.9976,-0.997,-0.9959,-0.9946,-0.9936,-0.9938,-0.9927,-0.9918,-0.9905,-0.9895,-0.9884,-0.9867,-0.9853,-0.9844,-0.983,-0.9821,-0.982,-0.9817,-0.9818,-0.9816,-0.9837,-0.9841,-0.9818,-0.9818,-0.9818,-0.9818,-0.9818,-0.9818,-0.9964,-0.9949,-0.9945,-0.9926,-0.9919,-0.9905,-0.9899,-0.989,-0.9882,-0.9863,-0.9851,-0.9846,-0.9836,-0.982,-0.9807,-0.9804,-0.9799,-0.9795,-0.9793,-0.9812,-0.9815,-0.9817,-0.9821,-0.9794,-0.9794,-0.9773,-0.9773,-0.9773]},{"header":{"parameterUnit":"m.s-1","parameterCategory":1,"la1":30.2991,"la2":30.254,"lo1":-89.0895,"lo2":-89.0444,"dy":0.0017,"dx":0.0017,"nx":28,"ny":28,"refTime":"2023-09-01T03:00:00:Z","depth":0,"parameterNumber":3,"parameterNumberName":"V-component_of_WINDS"},"data":[0,0,0,0,0,0,0,0,0,0,0,0,0,0,0,0,0,0,0,0,0,0,0,0,0,0,0,0,0,0,0,0,0,0,0,0,0,0,0,0,0,0,0,0,0,0,0,0,0,0,0,0,0,0,0,0,0,0,0.1663,0.1662,0,0.1562,0.1561,0.156,0.1465,0.1463,0.1462,0.1461,0.1362,0.136,0.1359,0,0,0,0,0,0,0,0,0,0,0,0,0,0.1777,0.1776,0.1663,0.1662,0.166,0.1562,0.1561,0.156,0.1465,0.1463,0.1462,0.146,0.1362,0.136,0.1359,0,0,0,0,0,0,0,0,0,0,0,0,0,0.1708,0.1775,0.1663,0.1601,0.1595,0.1563,0.1561,0.1559,0.1465,0.1463,0.1461,0.146,0.1363,0.1361,0.1358,0.1381,0,0,0.1351,0.135,0,0,0,0,0,0,0,0,0.1712,0.1703,0.1612,0.1605,0.1598,0.1524,0.1565,0.1499,0.1466,0.1514,0.1461,0.1459,0.1417,0.1411,0.1396,0.1376,0.1372,0.1351,0.135,0.1349,0.1348,0,0,0,0,0,0,0,0.1717,0.1707,0.1623,0.161,0.1602,0.158,0.1568,0.1552,0.1477,0.151,0.1503,0.1492,0.1413,0.1398,0.1393,0.137,0.1351,0.1349,0.1348,0.1347,0.1365,0.1367,0,0,0,0,0,0,0.173,0.1712,0.1626,0.162,0.1651,0.1579,0.1566,0.155,0.1477,0.1464,0.1494,0.1488,0.1403,0.1395,0.1389,0.141,0.1349,0.1347,0.1345,0.1363,0.1366,0.1368,0,0,0,0,0,0,0.1733,0.1724,0.163,0.1664,0.165,0.1579,0.1562,0.1549,0.1533,0.1465,0.1452,0.1491,0.1401,0.1392,0.1383,0.1406,0.1346,0.1344,0.1361,0.1364,0.1367,0.1454,0,0,0,0,0,0,0.1737,0.1725,0.1732,0.1665,0.1649,0.1625,0.1563,0.1548,0.1529,0.1521,0.1459,0.1447,0.1399,0.1387,0.1381,0.1401,0.1342,0.1359,0.1362,0.1366,0.1449,0.1459,0.1469,0,0,0,0,0,0.1741,0.1761,0.1732,0.1723,0.1655,0.1627,0.1618,0.1561,0.1531,0.1538,0.1494,0.1449,0.1405,0.1387,0.1379,0.14,0.1357,0.1361,0.1365,0.1444,0.1457,0.1468,0,0,0,0,0,0,0.1833,0.1751,0.1718,0.1717,0.168,0.1611,0.1617,0.1576,0.1547,0.1541,0.1472,0.1459,0.1459,0.1428,0.141,0.1418,0.1375,0.1378,0.1438,0.1449,0.1459,0.1466,0.134,0,0,0,0,0,0.1853,0.1835,0.1765,0.1771,0.1753,0.1689,0.1674,0.1634,0.1593,0.1577,0.1532,0.1495,0.1473,0.1459,0.1435,0.1444,0.143,0.1455,0.1465,0.1473,0.1476,0.148,0.149,0.1381,0.1381,0.1381,0,0,0.1894,0.1847,0.184,0.1788,0.1754,0.1739,0.1676,0.1662,0.1651,0.1575,0.1563,0.153,0.1485,0.1485,0.1483,0.146,0.1503,0.1478,0.1486,0.1484,0.1485,0.1496,0.1505,0.1384,0.1383,0.1383,0,0,0.1961,0.1924,0.1924,0.1892,0.1841,0.1798,0.1799,0.1737,0.1711,0.1699,0.1642,0.1628,0.159,0.156,0.1541,0.1599,0.1556,0.1593,0.1644,0.1649,0.1657,0.1665,0.1686,0.1694,0.1596,0.1596,0.1597,0,0.2019,0.1992,0.193,0.1919,0.1899,0.1829,0.183,0.1802,0.1747,0.1735,0.1709,0.1661,0.1626,0.1619,0.1633,0.1619,0.1619,0.1599,0.1661,0.1667,0.1673,0.1693,0.1701,0.1601,0.1601,0.16,0.16,0,0.2066,0.2048,0.2055,0.2002,0.1983,0.1978,0.1917,0.1905,0.1867,0.1828,0.1817,0.1772,0.1737,0.1733,0.1696,0.1722,0.1709,0.1673,0.1628,0.169,0.1707,0.1714,0.1608,0.1606,0.1605,0.1604,0,0,0.2186,0.21,0.2104,0.2079,0.2019,0.2005,0.1999,0.1964,0.1956,0.1921,0.1914,0.1885,0.1852,0.1829,0.1788,0.1793,0.1842,0.1756,0.1754,0.1774,0.1869,0.1896,0.1905,0.1814,0.1816,0.1817,0.1873,0,0.2243,0.2224,0.217,0.2169,0.2153,0.2088,0.2082,0.2046,0.201,0.1992,0.1952,0.1933,0.189,0.1876,0.1878,0.1836,0.186,0.1831,0.1809,0.1809,0.1822,0.1914,0.1942,0.1997,0.1879,0.188,0.1881,0,0.2306,0.2274,0.2272,0.2214,0.2205,0.2201,0.2165,0.2149,0.2107,0.2081,0.2057,0.2011,0.2002,0.1961,0.1949,0.193,0.1918,0.1897,0.1898,0.1893,0.1848,0.1912,0.2013,0.2022,0.1891,0.189,0.1889,0,0.2394,0.2351,0.2344,0.2326,0.2258,0.2256,0.2228,0.2185,0.2168,0.2138,0.2127,0.2097,0.208,0.2059,0.2007,0.1982,0.2001,0.1956,0.198,0.1982,0.1986,0.1987,0.2087,0.198,0.1979,0.1979,0.1979,0,0.2462,0.2464,0.2383,0.2379,0.2379,0.2317,0.232,0.2286,0.2248,0.2237,0.218,0.2171,0.2103,0.2088,0.2048,0.2045,0.2038,0.2017,0.2006,0.2022,0.2024,0.2012,0.2007,0.1981,0.1981,0.1981,0.198,0,0.256,0.2506,0.2495,0.2431,0.2416,0.2419,0.2365,0.236,0.2321,0.2308,0.2302,0.2241,0.222,0.2166,0.2131,0.2105,0.2112,0.2092,0.2126,0.2119,0.2146,0.2145,0.2242,0.2252,0.2139,0.214,0.2141,0,0.2607,0.2607,0.2544,0.2532,0.2506,0.2488,0.247,0.241,0.2395,0.2348,0.2349,0.2323,0.2299,0.2269,0.2222,0.2196,0.2175,0.2211,0.2171,0.2187,0.2176,0.2176,0.2176,0.222,0.2222,0.2223,0.2224,0,0.2697,0.2671,0.2647,0.2615,0.2595,0.2567,0.2536,0.253,0.2463,0.2449,0.2426,0.2408,0.2372,0.2348,0.2314,0.2287,0.2245,0.2237,0.2241,0.2257,0.2276,0.2266,0.215,0.2235,0.2234,0.2233,0.2232,0.2232,0.2771,0.2767,0.2723,0.2699,0.2669,0.2642,0.2634,0.2594,0.2573,0.2539,0.2505,0.2486,0.2446,0.2397,0.2373,0.2358,0.2336,0.2342,0.2344,0.2346,0.2353,0.2279,0.2352,0.2352,0.2351,0.2351,0.2351,0,0.2857,0.2825,0.2804,0.2762,0.2744,0.2706,0.267,0.2657,0.2641,0.2607,0.2584,0.2559,0.2536,0.2488,0.246,0.2458,0.2438,0.2453,0.2452,0.2447,0.2374,0.2373,0.247,0.247,0.247,0.2469,0.2469,0.2469,0.29,0.2893,0.2861,0.284,0.2808,0.2788,0.2771,0.2746,0.2719,0.2693,0.2672,0.2641,0.2602,0.2572,0.2549,0.2536,0.2528,0.2549,0.253,0.2463,0.2452,0.2441,0.244,0.2548,0.2549,0.2604,0.2604,0.2605]}]]